TimeCDT,TemperatureF,Dew PointF,Humidity,Sea Level PressureIn,VisibilityMPH,Wind Direction,Wind SpeedMPH,Gust SpeedMPH,PrecipitationIn,Events,Conditions,WindDirDegrees,DateUTC
12:54 AM,48.0,45.0,89,30.07,10.0,ENE,6.9,-,0.00,Rain,Light Rain,60,2013-06-06 05:54:00
1:54 AM,48.9,45.0,86,30.06,10.0,ENE,3.5,-,0.00,,Overcast,60,2013-06-06 06:54:00
2:54 AM,48.9,45.0,86,30.06,10.0,North,3.5,-,0.00,Rain,Light Rain,10,2013-06-06 07:54:00
3:54 AM,48.9,45.0,86,30.04,10.0,ENE,3.5,-,0.00,,Overcast,60,2013-06-06 08:54:00
4:54 AM,48.0,45.0,89,30.06,10.0,Calm,Calm,-,0.00,Rain,Light Rain,0,2013-06-06 09:54:00
5:54 AM,48.0,45.0,89,30.06,10.0,North,3.5,-,0.00,Rain,Light Rain,360,2013-06-06 10:54:00
6:54 AM,48.0,45.0,89,30.06,10.0,Variable,3.5,-,0.00,Rain,Light Rain,0,2013-06-06 11:54:00
7:54 AM,48.9,45.0,86,30.05,10.0,ENE,5.8,-,0.00,Rain,Light Rain,70,2013-06-06 12:54:00
8:54 AM,50.0,45.0,83,30.06,10.0,ENE,4.6,-,0.00,Rain,Light Rain,70,2013-06-06 13:54:00
9:54 AM,53.1,45.0,74,30.06,10.0,ENE,8.1,-,0.00,,Mostly Cloudy,60,2013-06-06 14:54:00
10:54 AM,53.1,45.0,74,30.06,10.0,NE,4.6,-,N/A,,Overcast,40,2013-06-06 15:54:00
11:54 AM,54.0,42.1,64,30.06,10.0,Variable,5.8,-,N/A,,Overcast,0,2013-06-06 16:54:00
12:54 PM,54.0,42.1,64,30.06,10.0,NE,4.6,-,N/A,,Overcast,50,2013-06-06 17:54:00
1:54 PM,55.0,42.1,62,30.05,10.0,NNE,8.1,-,N/A,,Overcast,30,2013-06-06 18:54:00
2:54 PM,55.0,41.0,59,30.05,10.0,NE,4.6,-,N/A,,Overcast,40,2013-06-06 19:54:00
3:54 PM,55.9,39.9,55,30.04,10.0,NE,5.8,-,N/A,,Overcast,50,2013-06-06 20:54:00
4:54 PM,59.0,41.0,51,30.04,10.0,NNE,6.9,-,N/A,,Overcast,30,2013-06-06 21:54:00
5:54 PM,57.9,39.9,51,30.04,10.0,NE,4.6,-,N/A,,Overcast,40,2013-06-06 22:54:00
6:54 PM,57.0,39.0,51,30.03,10.0,NE,4.6,-,N/A,,Scattered Clouds,40,2013-06-06 23:54:00
7:54 PM,55.9,37.9,51,30.03,10.0,NNE,4.6,-,N/A,,Scattered Clouds,20,2013-06-07 00:54:00
8:54 PM,54.0,39.9,59,30.02,10.0,NNW,3.5,-,N/A,,Overcast,330,2013-06-07 01:54:00
9:54 PM,53.1,39.9,61,30.03,10.0,Calm,Calm,-,N/A,,Overcast,0,2013-06-07 02:54:00
10:54 PM,51.1,41.0,68,30.02,10.0,Calm,Calm,-,N/A,,Mostly Cloudy,0,2013-06-07 03:54:00
11:54 PM,50.0,42.1,74,30.03,10.0,Calm,Calm,-,N/A,,Scattered Clouds,0,2013-06-07 04:54:00